Location: ????????
(55.0559°N, 39.1270°E)
Time: 08:45:00
(UTC+00:00)

Cosmos 332 Rocket - Pass Details

Date: 15 November 2025
Orbit: 673 x 692 km, 74.0° (Epoch: 14 December)

Event Time Altitude Azimuth Distance (km) Brightness Sun altitude
Exits shadow 02:58:29 14° 330° (NNW) 1,855 5.6 -16.4°
Maximum altitude 03:02:34 78° 246° (WSW) 704 3.7 -15.9°
Drops below altitude 10° 03:07:19 10° 160° (SSE) 2,115 6.7 -15.2°
Sets 03:09:36 0° 159° (SSE) 3,023 7.6 -14.9°
